User: anonymous   Login
Location: Shenandoah County Park
(38.9356°N, 78.4524°W)
Time: 02:36:24
(UTC-05:00)
Language:

DUCHIFAT 1 - Orbit

View from above orbital plane
View from above orbital plane
View from above satellite
View from above satellite

Ground track
Ground track

The orbit data is extracted from the following two-line orbital elements,

1 40021U 14033M   24063.88170362  .00027510  00000-0  19960-2 0  9990
2 40021  98.0841  42.6541 0015598  95.3089 264.9916 15.03776174528286
Epoch (UTC): 03 March 2024 21:09:39
Eccentricity: 0.0015598
inclination: 98.0841°
perigee height: 544 km
apogee height: 566 km
right ascension of ascending node: 42.6541°
argument of perigee: 95.3089°
revolutions per day: 15.03776174
mean anomaly at epoch: 264.9916°
orbit number at epoch: 52828

The dashed part of the orbit path shows where the satellite is in the earth's shadow,  

DLR